Regional Weather Roundup
Issued by NWS

Current Version | Previous Version | Text Only | Print | Product List | Glossary Off
Versions: 1 2 3 4 5 6 7 8 9 10 11 12 13 14 15 16 17 18 19 20 21 22 23 24 25 26 27 28 29 30 31 32 33 34 35 36 37 38 39 40 41 42 43 44 45 46 47 48 49 50

421
ASUS42 KFFC 010003
RWRGA
WEATHER ROUNDUP FOR GEORGIA
NATIONAL WEATHER SERVICE PEACHTREE CITY GA
800 PM EDT TUE MAY 31 2016

NOTE: "FAIR" INDICATES FEW OR NO CLOUDS BELOW 12,000 FEET WITH NO
SIGNIFICANT WEATHER AND/OR OBSTRUCTIONS TO VISIBILITY.

* = USE WITH CAUTION. THE STATIONS MARKED WITH AN ASTERISK MAY NOT
REPORT WEATHER SUCH AS PRECIPITATION, FOG, OR THUNDER AND ARE NOT
QUALITY CONTROLLED BY NWS.

THE REMARK "TC" DENOTES TEMPERATURE READING IN DEGREES CELSIUS.

GAZ001>058-010100-
NORTH GEORGIA

CITY           SKY/WX    TMP DP  RH WIND       PRES   REMARKS
ATLANTA        PTCLDY    87  60  40 S7        29.91R
6HR MIN TEMP:  85; 6HR MAX TEMP:  92; 6HR PCP: TRACE;

ATHENS         HVY RAIN  73  68  84 E7        29.92R
6HR MIN TEMP:  73; 6HR MAX TEMP:  94; 6HR PCP:  0.14;

CHAMBLEE       CLEAR     87  52  29 E6        29.91R
6HR MIN TEMP:  87; 6HR MAX TEMP:  94;

PEACHTREE CITY CLEAR     82  68  62 S3        29.91R
6HR MIN TEMP:  82; 6HR MAX TEMP:  93;

ROME           CLEAR     89  57  33 NW3       29.88S
6HR MIN TEMP:  88; 6HR MAX TEMP:  94;

WEST ATLANTA   CLEAR     88  57  34 N5        29.90R
6HR MIN TEMP:  88; 6HR MAX TEMP:  92;

GAINESVILLE    CLEAR     82  64  54 E6        29.96R
6HR MIN TEMP:  82; 6HR MAX TEMP:  89;

CARTERSVILLE   CLEAR     85  62  46 CALM      29.90R
6HR MIN TEMP:  85; 6HR MAX TEMP:  92;



CITY           SKY/WX    TMP DP  RH WIND       PRES   REMARKS
DALTON*        CLEAR     88  59  37 CALM      29.89S
LAWRENCEVILLE* PTCLDY    84  64  51 S5        29.93R
CANTON*        CLEAR     88  45  22 CALM      29.93R
BLAIRSVILLE*     N/A    N/A N/A N/A MISG      29.97S
$$

GAZ059>098-102>109-010100-
CENTRAL GEORGIA

CITY           SKY/WX    TMP DP  RH WIND       PRES   REMARKS
AUGUSTA-BUSH   CLEAR     82  73  74 SW3       29.88R
6HR MIN TEMP:  82; 6HR MAX TEMP:  90;

AUGUSTA-DANIEL CLEAR     87  66  49 CALM      29.91R
6HR MIN TEMP:  87; 6HR MAX TEMP:  91;

COLUMBUS       PTCLDY    89  59  36 SW7       29.87R
6HR MIN TEMP:  89; 6HR MAX TEMP:  96;

MACON          CLEAR     86  65  49 E5        29.89R
6HR MIN TEMP:  85; 6HR MAX TEMP:  95;



CITY           SKY/WX    TMP DP  RH WIND       PRES   REMARKS
LAGRANGE*      PTCLDY    87  68  52 SW7       29.91R HX  90
SYLVANIA*      CLEAR     87  72  61 CALM      29.90R HX  93
MILLEDGEVILLE* CLEAR     82  68  61 CALM      29.89R
$$

GAZ099>101-110>166-010100-
SOUTH GEORGIA

CITY           SKY/WX    TMP DP  RH WIND       PRES   REMARKS
SAVANNAH       MOCLDY    81  70  69 SW10      29.91R
6HR MIN TEMP:  81; 6HR MAX TEMP:  92;

VALDOSTA       PTCLDY    80  67  64 CALM      29.89S
6HR MIN TEMP:  80; 6HR MAX TEMP:  95;

ALMA           CLEAR     80  64  58 E5        29.89R
6HR MIN TEMP:  80; 6HR MAX TEMP:  93;

ST SIMONS      PTCLDY    79  73  82 CALM      29.92R
6HR MIN TEMP:  79; 6HR MAX TEMP:  85;

ALBANY         MOCLDY    90  59  35 SW6       29.89R THUNDER
BRUNSWICK      PTCLDY    84  75  74 W8        29.94R THUNDER HX  92


CITY           SKY/WX    TMP DP  RH WIND       PRES   REMARKS
BAINBRIDGE*    CLOUDY    84  68  58 W10       29.91R
MOULTRIE*      CLEAR     88  63  42 S6        29.89S
VIDALIA*       CLEAR     88  68  51 CALM      29.89R HX  91
WAYCROSS*      CLEAR     83  67  58 SE10      29.90R
DOUGLAS*       PTCLDY    88  59  37 SE5       29.90R
$$




USA.gov is the U.S. government's official web portal to all federal, state and local government web resources and services.